owner,sensor,date,latitude,longitude,vertical_datum,mass_concentration_of_oxygen_in_sea_water,qcFlag 
SCCF RECON,ioos:station:SCCF:56:1,2016-02-01T00:00:00Z,26.4645,-82.1044,2.095,8.23,1111122 
SCCF RECON,ioos:station:SCCF:56:1,2016-02-01T01:00:00Z,26.4645,-82.1044,2.042,7.79,1111122 
SCCF RECON,ioos:station:SCCF:56:1,2016-02-01T02:00:00Z,26.4645,-82.1044,1.941,8.13,1111122 
SCCF RECON,ioos:station:SCCF:56:1,2016-02-01T03:00:00Z,26.4645,-82.1044,1.83,8.15,1111122 
SCCF RECON,ioos:station:SCCF:56:1,2016-02-01T04:00:00Z,26.4645,-82.1044,1.768,7.71,1111122 
SCCF RECON,ioos:station:SCCF:56:1,2016-02-01T05:00:00Z,26.4645,-82.1044,1.73,7.29,1111122 
SCCF RECON,ioos:station:SCCF:56:1,2016-02-01T06:00:00Z,26.4645,-82.1044,1.72,6.44,1111122 
SCCF RECON,ioos:station:SCCF:56:1,2016-02-01T07:00:00Z,26.4645,-82.1044,1.69,6.59,1111122 
SCCF RECON,ioos:station:SCCF:56:1,2016-02-01T08:00:00Z,26.4645,-82.1044,1.71,6.9,1111122 
SCCF RECON,ioos:station:SCCF:56:1,2016-02-01T09:00:00Z,26.4645,-82.1044,1.77,6.61,1111122 
SCCF RECON,ioos:station:SCCF:56:1,2016-02-01T10:00:00Z,26.4645,-82.1044,1.811,7.21,1111122 
SCCF RECON,ioos:station:SCCF:56:1,2016-02-01T11:00:00Z,26.4645,-82.1044,1.928,7.34,1111122 
SCCF RECON,ioos:station:SCCF:56:1,2016-02-01T12:00:00Z,26.4645,-82.1044,1.99,7.76,1111122 
SCCF RECON,ioos:station:SCCF:56:1,2016-02-01T13:00:00Z,26.4645,-82.1044,1.972,7.05,1111122 
SCCF RECON,ioos:station:SCCF:56:1,2016-02-01T14:00:00Z,26.4645,-82.1044,1.92,6.99,1111122 
SCCF RECON,ioos:station:SCCF:56:1,2016-02-01T15:00:00Z,26.4645,-82.1044,1.86,6.77,1111122 
SCCF RECON,ioos:station:SCCF:56:1,2016-02-01T16:00:00Z,26.4645,-82.1044,1.79,6.81,1111122 
SCCF RECON,ioos:station:SCCF:56:1,2016-02-01T17:00:00Z,26.4645,-82.1044,1.75,6.89,1111122 
SCCF RECON,ioos:station:SCCF:56:1,2016-02-01T18:00:00Z,26.4645,-82.1044,1.75,6.77,1111122 
SCCF RECON,ioos:station:SCCF:56:1,2016-02-01T19:00:00Z,26.4645,-82.1044,1.8,7.01,1111122 
SCCF RECON,ioos:station:SCCF:56:1,2016-02-01T20:00:00Z,26.4645,-82.1044,1.86,8.47,1111122 
SCCF RECON,ioos:station:SCCF:56:1,2016-02-01T21:00:00Z,26.4645,-82.1044,1.93,8.5,1111122 
SCCF RECON,ioos:station:SCCF:56:1,2016-02-01T22:00:00Z,26.4645,-82.1044,1.99,8.72,1111122 
SCCF RECON,ioos:station:SCCF:56:1,2016-02-01T23:00:00Z,26.4645,-82.1044,2.01,8.49,1111122 
SCCF RECON,ioos:station:SCCF:56:1,2016-02-02T00:00:00Z,26.4645,-82.1044,1.99,7.6,1111122 
SCCF RECON,ioos:station:SCCF:56:1,2016-02-02T01:00:00Z,26.4645,-82.1044,1.97,7.95,1111122 
SCCF RECON,ioos:station:SCCF:56:1,2016-02-02T02:00:00Z,26.4645,-82.1044,1.929,7.71,1111122 
SCCF RECON,ioos:station:SCCF:56:1,2016-02-02T03:00:00Z,26.4645,-82.1044,1.85,8.11,1111122 
SCCF RECON,ioos:station:SCCF:56:1,2016-02-02T04:00:00Z,26.4645,-82.1044,1.77,7.52,1111122 
SCCF RECON,ioos:station:SCCF:56:1,2016-02-02T05:00:00Z,26.4645,-82.1044,1.68,7.07,1111122 
SCCF RECON,ioos:station:SCCF:56:1,2016-02-02T06:00:00Z,26.4645,-82.1044,1.59,6.73,1111122 
SCCF RECON,ioos:station:SCCF:56:1,2016-02-02T07:00:00Z,26.4645,-82.1044,1.51,6.36,1111122 
SCCF RECON,ioos:station:SCCF:56:1,2016-02-02T08:00:00Z,26.4645,-82.1044,1.51,6.15,1111122 
SCCF RECON,ioos:station:SCCF:56:1,2016-02-02T09:00:00Z,26.4645,-82.1044,1.57,6.2,1111122 
SCCF RECON,ioos:station:SCCF:56:1,2016-02-02T10:00:00Z,26.4645,-82.1044,1.66,6.4,1111122 
SCCF RECON,ioos:station:SCCF:56:1,2016-02-02T11:00:00Z,26.4645,-82.1044,1.74,6.86,1111122 
SCCF RECON,ioos:station:SCCF:56:1,2016-02-02T12:00:00Z,26.4645,-82.1044,1.79,6.55,1111122 
SCCF RECON,ioos:station:SCCF:56:1,2016-02-02T13:00:00Z,26.4645,-82.1044,1.859,6.85,1111122 
SCCF RECON,ioos:station:SCCF:56:1,2016-02-02T14:00:00Z,26.4645,-82.1044,1.892,6.89,1111122 
SCCF RECON,ioos:station:SCCF:56:1,2016-02-02T15:00:00Z,26.4645,-82.1044,1.91,6.35,1111122 
SCCF RECON,ioos:station:SCCF:56:1,2016-02-02T16:00:00Z,26.4645,-82.1044,1.9,5.76,1111122 
SCCF RECON,ioos:station:SCCF:56:1,2016-02-02T17:00:00Z,26.4645,-82.1044,1.9,5.99,1111122 
SCCF RECON,ioos:station:SCCF:56:1,2016-02-02T18:00:00Z,26.4645,-82.1044,1.88,6.3,1111122 
SCCF RECON,ioos:station:SCCF:56:1,2016-02-02T19:00:00Z,26.4645,-82.1044,1.88,7.0,1111122 
SCCF RECON,ioos:station:SCCF:56:1,2016-02-02T20:00:00Z,26.4645,-82.1044,1.87,7.44,1111122 
SCCF RECON,ioos:station:SCCF:56:1,2016-02-02T21:00:00Z,26.4645,-82.1044,1.927,9.03,1111122 
SCCF RECON,ioos:station:SCCF:56:1,2016-02-02T22:00:00Z,26.4645,-82.1044,2.03,10.03,1111122 
SCCF RECON,ioos:station:SCCF:56:1,2016-02-02T23:00:00Z,26.4645,-82.1044,2.1,8.23,1111122 
SCCF RECON,ioos:station:SCCF:56:1,2016-02-03T00:00:00Z,26.4645,-82.1044,2.14,7.67,1111122 
SCCF RECON,ioos:station:SCCF:56:1,2016-02-03T01:00:00Z,26.4645,-82.1044,2.137,7.23,1111122 
SCCF RECON,ioos:station:SCCF:56:1,2016-02-03T02:00:00Z,26.4645,-82.1044,2.1,7.23,1111122 
SCCF RECON,ioos:station:SCCF:56:1,2016-02-03T03:00:00Z,26.4645,-82.1044,2.04,7.36,1111122 
SCCF RECON,ioos:station:SCCF:56:1,2016-02-03T04:00:00Z,26.4645,-82.1044,1.93,7.12,1111122 
SCCF RECON,ioos:station:SCCF:56:1,2016-02-03T05:00:00Z,26.4645,-82.1044,1.82,7.08,1111122 
SCCF RECON,ioos:station:SCCF:56:1,2016-02-03T06:00:00Z,26.4645,-82.1044,1.72,6.52,1111122 
SCCF RECON,ioos:station:SCCF:56:1,2016-02-03T07:00:00Z,26.4645,-82.1044,1.62,6.26,1111122 
SCCF RECON,ioos:station:SCCF:56:1,2016-02-03T08:00:00Z,26.4645,-82.1044,1.54,5.95,1111122 
SCCF RECON,ioos:station:SCCF:56:1,2016-02-03T09:00:00Z,26.4645,-82.1044,1.534,5.7,1111122 
SCCF RECON,ioos:station:SCCF:56:1,2016-02-03T10:00:00Z,26.4645,-82.1044,1.595,5.75,1111122 
SCCF RECON,ioos:station:SCCF:56:1,2016-02-03T11:00:00Z,26.4645,-82.1044,1.71,6.15,1111122 
SCCF RECON,ioos:station:SCCF:56:1,2016-02-03T12:00:00Z,26.4645,-82.1044,1.82,6.31,1111122 
SCCF RECON,ioos:station:SCCF:56:1,2016-02-03T13:00:00Z,26.4645,-82.1044,1.89,6.23,1111122 
SCCF RECON,ioos:station:SCCF:56:1,2016-02-03T14:00:00Z,26.4645,-82.1044,1.94,7.12,1111122 
SCCF RECON,ioos:station:SCCF:56:1,2016-02-03T15:00:00Z,26.4645,-82.1044,1.98,7.66,1111122 
SCCF RECON,ioos:station:SCCF:56:1,2016-02-03T16:00:00Z,26.4645,-82.1044,1.98,7.29,1111122 
SCCF RECON,ioos:station:SCCF:56:1,2016-02-03T17:00:00Z,26.4645,-82.1044,1.986,7.42,1111122 
SCCF RECON,ioos:station:SCCF:56:1,2016-02-03T18:00:00Z,26.4645,-82.1044,1.956,7.77,1111122 
SCCF RECON,ioos:station:SCCF:56:1,2016-02-03T19:00:00Z,26.4645,-82.1044,1.93,7.53,1111122 
SCCF RECON,ioos:station:SCCF:56:1,2016-02-03T20:00:00Z,26.4645,-82.1044,1.923,8.49,1111122 
SCCF RECON,ioos:station:SCCF:56:1,2016-02-03T21:00:00Z,26.4645,-82.1044,1.961,9.47,1111122 
SCCF RECON,ioos:station:SCCF:56:1,2016-02-03T22:00:00Z,26.4645,-82.1044,2.049,8.72,1111122 
SCCF RECON,ioos:station:SCCF:56:1,2016-02-03T23:00:00Z,26.4645,-82.1044,2.116,8.29,1111122 
SCCF RECON,ioos:station:SCCF:56:1,2016-02-04T00:00:00Z,26.4645,-82.1044,2.151,8.03,1111122 
SCCF RECON,ioos:station:SCCF:56:1,2016-02-04T01:00:00Z,26.4645,-82.1044,2.16,7.96,1111122 
SCCF RECON,ioos:station:SCCF:56:1,2016-02-04T02:00:00Z,26.4645,-82.1044,2.18,7.94,1111122 
SCCF RECON,ioos:station:SCCF:56:1,2016-02-04T03:00:00Z,26.4645,-82.1044,2.16,7.9,1111122 
SCCF RECON,ioos:station:SCCF:56:1,2016-02-04T04:00:00Z,26.4645,-82.1044,2.108,7.88,1111122 
SCCF RECON,ioos:station:SCCF:56:1,2016-02-04T05:00:00Z,26.4645,-82.1044,1.999,7.66,1111122 
SCCF RECON,ioos:station:SCCF:56:1,2016-02-04T06:00:00Z,26.4645,-82.1044,1.87,6.81,1111122 
SCCF RECON,ioos:station:SCCF:56:1,2016-02-04T07:00:00Z,26.4645,-82.1044,1.76,6.34,1111122 
SCCF RECON,ioos:station:SCCF:56:1,2016-02-04T08:00:00Z,26.4645,-82.1044,1.64,5.75,1111122 
SCCF RECON,ioos:station:SCCF:56:1,2016-02-04T09:00:00Z,26.4645,-82.1044,1.54,5.43,1111122 
SCCF RECON,ioos:station:SCCF:56:1,2016-02-04T10:00:00Z,26.4645,-82.1044,1.49,5.1,1111122 
SCCF RECON,ioos:station:SCCF:56:1,2016-02-04T11:00:00Z,26.4645,-82.1044,1.56,5.06,1111122 
SCCF RECON,ioos:station:SCCF:56:1,2016-02-04T12:00:00Z,26.4645,-82.1044,1.69,6.27,1111122 
SCCF RECON,ioos:station:SCCF:56:1,2016-02-04T13:00:00Z,26.4645,-82.1044,1.8,6.55,1111122 
SCCF RECON,ioos:station:SCCF:56:1,2016-02-04T14:00:00Z,26.4645,-82.1044,1.889,7.28,1111122 
SCCF RECON,ioos:station:SCCF:56:1,2016-02-04T15:00:00Z,26.4645,-82.1044,1.95,8.03,1111122 
SCCF RECON,ioos:station:SCCF:56:1,2016-02-04T16:00:00Z,26.4645,-82.1044,1.99,8.31,1111122 
SCCF RECON,ioos:station:SCCF:56:1,2016-02-04T17:00:00Z,26.4645,-82.1044,2.009,8.87,1111122 
SCCF RECON,ioos:station:SCCF:56:1,2016-02-04T18:00:00Z,26.4645,-82.1044,1.97,8.24,1111122 
SCCF RECON,ioos:station:SCCF:56:1,2016-02-04T19:00:00Z,26.4645,-82.1044,1.91,8.57,1111122 
SCCF RECON,ioos:station:SCCF:56:1,2016-02-04T20:00:00Z,26.4645,-82.1044,1.84,8.4,1111122 
SCCF RECON,ioos:station:SCCF:56:1,2016-02-04T21:00:00Z,26.4645,-82.1044,1.83,8.37,1111122 
SCCF RECON,ioos:station:SCCF:56:1,2016-02-04T22:00:00Z,26.4645,-82.1044,1.912,9.89,1111122 
SCCF RECON,ioos:station:SCCF:56:1,2016-02-04T23:00:00Z,26.4645,-82.1044,1.99,8.69,1111122 
SCCF RECON,ioos:station:SCCF:56:1,2016-02-05T00:00:00Z,26.4645,-82.1044,2.077,8.2,1111122 
SCCF RECON,ioos:station:SCCF:56:1,2016-02-05T01:00:00Z,26.4645,-82.1044,2.145,7.85,1111122 
SCCF RECON,ioos:station:SCCF:56:1,2016-02-05T02:00:00Z,26.4645,-82.1044,2.254,7.58,1111122 
SCCF RECON,ioos:station:SCCF:56:1,2016-02-05T03:00:00Z,26.4645,-82.1044,2.192,7.56,1111122 
SCCF RECON,ioos:station:SCCF:56:1,2016-02-05T04:00:00Z,26.4645,-82.1044,2.1,7.5,1111122 
SCCF RECON,ioos:station:SCCF:56:1,2016-02-05T05:00:00Z,26.4645,-82.1044,2.019,7.16,1111122 
SCCF RECON,ioos:station:SCCF:56:1,2016-02-05T06:00:00Z,26.4645,-82.1044,1.881,6.9,1111122 
SCCF RECON,ioos:station:SCCF:56:1,2016-02-05T07:00:00Z,26.4645,-82.1044,1.757,6.44,1111122 
SCCF RECON,ioos:station:SCCF:56:1,2016-02-05T08:00:00Z,26.4645,-82.1044,1.61,6.11,1111122 
SCCF RECON,ioos:station:SCCF:56:1,2016-02-05T09:00:00Z,26.4645,-82.1044,1.475,5.79,1111122 
SCCF RECON,ioos:station:SCCF:56:1,2016-02-05T10:00:00Z,26.4645,-82.1044,1.339,5.72,1111122 
SCCF RECON,ioos:station:SCCF:56:1,2016-02-05T11:00:00Z,26.4645,-82.1044,1.277,5.56,1111122 
SCCF RECON,ioos:station:SCCF:56:1,2016-02-05T12:00:00Z,26.4645,-82.1044,1.26,5.46,1111122 
SCCF RECON,ioos:station:SCCF:56:1,2016-02-05T13:00:00Z,26.4645,-82.1044,1.279,5.44,1111122 
SCCF RECON,ioos:station:SCCF:56:1,2016-02-05T14:00:00Z,26.4645,-82.1044,1.37,5.8,1111122 
SCCF RECON,ioos:station:SCCF:56:1,2016-02-05T15:00:00Z,26.4645,-82.1044,1.461,6.91,1111122 
SCCF RECON,ioos:station:SCCF:56:1,2016-02-05T16:00:00Z,26.4645,-82.1044,1.51,8.28,1111122 
SCCF RECON,ioos:station:SCCF:56:1,2016-02-05T17:00:00Z,26.4645,-82.1044,1.539,8.31,1111122 
SCCF RECON,ioos:station:SCCF:56:1,2016-02-05T18:00:00Z,26.4645,-82.1044,1.521,8.31,1111122 
SCCF RECON,ioos:station:SCCF:56:1,2016-02-05T19:00:00Z,26.4645,-82.1044,1.471,7.77,1111122 
SCCF RECON,ioos:station:SCCF:56:1,2016-02-05T20:00:00Z,26.4645,-82.1044,1.458,7.18,1111122 
SCCF RECON,ioos:station:SCCF:56:1,2016-02-05T21:00:00Z,26.4645,-82.1044,1.48,9.43,1111122 
SCCF RECON,ioos:station:SCCF:56:1,2016-02-05T22:00:00Z,26.4645,-82.1044,1.552,9.44,1111122 
SCCF RECON,ioos:station:SCCF:56:1,2016-02-05T23:00:00Z,26.4645,-82.1044,1.64,8.39,1111122 
SCCF RECON,ioos:station:SCCF:56:1,2016-02-06T00:00:00Z,26.4645,-82.1044,1.752,8.03,1111122 
SCCF RECON,ioos:station:SCCF:56:1,2016-02-06T01:00:00Z,26.4645,-82.1044,1.848,8.38,1111122 
SCCF RECON,ioos:station:SCCF:56:1,2016-02-06T02:00:00Z,26.4645,-82.1044,1.869,8.06,1111122 
SCCF RECON,ioos:station:SCCF:56:1,2016-02-06T03:00:00Z,26.4645,-82.1044,1.891,8.0,1111122 
SCCF RECON,ioos:station:SCCF:56:1,2016-02-06T04:00:00Z,26.4645,-82.1044,1.9,8.14,1111122 
SCCF RECON,ioos:station:SCCF:56:1,2016-02-06T05:00:00Z,26.4645,-82.1044,1.892,7.69,1111122 
SCCF RECON,ioos:station:SCCF:56:1,2016-02-06T06:00:00Z,26.4645,-82.1044,1.82,7.09,1111122 
SCCF RECON,ioos:station:SCCF:56:1,2016-02-06T07:00:00Z,26.4645,-82.1044,1.689,7.37,1111122 
SCCF RECON,ioos:station:SCCF:56:1,2016-02-06T08:00:00Z,26.4645,-82.1044,1.559,7.26,1111122 
SCCF RECON,ioos:station:SCCF:56:1,2016-02-06T09:00:00Z,26.4645,-82.1044,1.433,6.85,1111122 
SCCF RECON,ioos:station:SCCF:56:1,2016-02-06T10:00:00Z,26.4645,-82.1044,1.349,6.45,1111122 
SCCF RECON,ioos:station:SCCF:56:1,2016-02-06T11:00:00Z,26.4645,-82.1044,1.29,6.19,1111122 
SCCF RECON,ioos:station:SCCF:56:1,2016-02-06T12:00:00Z,26.4645,-82.1044,1.33,6.06,1111122 
SCCF RECON,ioos:station:SCCF:56:1,2016-02-06T13:00:00Z,26.4645,-82.1044,1.46,6.61,1111122 
SCCF RECON,ioos:station:SCCF:56:1,2016-02-06T14:00:00Z,26.4645,-82.1044,1.61,7.54,1111122 
SCCF RECON,ioos:station:SCCF:56:1,2016-02-06T15:00:00Z,26.4645,-82.1044,1.75,7.91,1111122 
SCCF RECON,ioos:station:SCCF:56:1,2016-02-06T16:00:00Z,26.4645,-82.1044,1.86,8.32,1111122 
SCCF RECON,ioos:station:SCCF:56:1,2016-02-06T17:00:00Z,26.4645,-82.1044,1.95,8.36,1111122 
SCCF RECON,ioos:station:SCCF:56:1,2016-02-06T18:00:00Z,26.4645,-82.1044,1.979,8.39,1111122 
SCCF RECON,ioos:station:SCCF:56:1,2016-02-06T19:00:00Z,26.4645,-82.1044,1.89,8.05,1111122 
SCCF RECON,ioos:station:SCCF:56:1,2016-02-06T20:00:00Z,26.4645,-82.1044,1.75,7.9,1111122 
SCCF RECON,ioos:station:SCCF:56:1,2016-02-06T21:00:00Z,26.4645,-82.1044,1.691,7.86,1111122 
SCCF RECON,ioos:station:SCCF:56:1,2016-02-06T22:00:00Z,26.4645,-82.1044,1.693,7.3,1111122 
SCCF RECON,ioos:station:SCCF:56:1,2016-02-06T23:00:00Z,26.4645,-82.1044,1.699,7.6,1111122 
SCCF RECON,ioos:station:SCCF:56:1,2016-02-07T00:00:00Z,26.4645,-82.1044,1.671,7.35,1111122 
SCCF RECON,ioos:station:SCCF:56:1,2016-02-07T01:00:00Z,26.4645,-82.1044,1.712,7.58,1111122 
SCCF RECON,ioos:station:SCCF:56:1,2016-02-07T02:00:00Z,26.4645,-82.1044,1.821,7.79,1111122 
SCCF RECON,ioos:station:SCCF:56:1,2016-02-07T03:00:00Z,26.4645,-82.1044,1.95,7.92,1111122 
SCCF RECON,ioos:station:SCCF:56:1,2016-02-07T04:00:00Z,26.4645,-82.1044,2.03,8.06,1111122 
SCCF RECON,ioos:station:SCCF:56:1,2016-02-07T05:00:00Z,26.4645,-82.1044,2.01,7.93,1111122 
SCCF RECON,ioos:station:SCCF:56:1,2016-02-07T06:00:00Z,26.4645,-82.1044,1.92,7.78,1111122 
SCCF RECON,ioos:station:SCCF:56:1,2016-02-07T07:00:00Z,26.4645,-82.1044,1.8,7.55,1111122 
SCCF RECON,ioos:station:SCCF:56:1,2016-02-07T08:00:00Z,26.4645,-82.1044,1.698,7.12,1111122 
SCCF RECON,ioos:station:SCCF:56:1,2016-02-07T09:00:00Z,26.4645,-82.1044,1.57,7.07,1111122 
SCCF RECON,ioos:station:SCCF:56:1,2016-02-07T10:00:00Z,26.4645,-82.1044,1.451,6.96,1111122 
SCCF RECON,ioos:station:SCCF:56:1,2016-02-07T11:00:00Z,26.4645,-82.1044,1.32,6.92,1111122 
SCCF RECON,ioos:station:SCCF:56:1,2016-02-07T12:00:00Z,26.4645,-82.1044,1.265,6.88,1111122 
SCCF RECON,ioos:station:SCCF:56:1,2016-02-07T13:00:00Z,26.4645,-82.1044,1.255,6.8,1111122 
SCCF RECON,ioos:station:SCCF:56:1,2016-02-07T14:00:00Z,26.4645,-82.1044,1.317,7.38,1111122 
SCCF RECON,ioos:station:SCCF:56:1,2016-02-07T15:00:00Z,26.4645,-82.1044,1.47,8.35,1111122 
SCCF RECON,ioos:station:SCCF:56:1,2016-02-07T16:00:00Z,26.4645,-82.1044,1.582,8.66,1111122 
SCCF RECON,ioos:station:SCCF:56:1,2016-02-07T17:00:00Z,26.4645,-82.1044,1.654,8.99,1111122 
SCCF RECON,ioos:station:SCCF:56:1,2016-02-07T18:00:00Z,26.4645,-82.1044,1.708,9.12,1111122 
SCCF RECON,ioos:station:SCCF:56:1,2016-02-07T19:00:00Z,26.4645,-82.1044,1.665,8.9,1111122 
SCCF RECON,ioos:station:SCCF:56:1,2016-02-07T20:00:00Z,26.4645,-82.1044,1.599,9.46,1111122 
SCCF RECON,ioos:station:SCCF:56:1,2016-02-07T21:00:00Z,26.4645,-82.1044,1.522,9.68,1111122 
SCCF RECON,ioos:station:SCCF:56:1,2016-02-07T22:00:00Z,26.4645,-82.1044,1.507,9.8,1111122 
SCCF RECON,ioos:station:SCCF:56:1,2016-02-07T23:00:00Z,26.4645,-82.1044,1.5,9.62,1111122 
SCCF RECON,ioos:station:SCCF:56:1,2016-02-08T00:00:00Z,26.4645,-82.1044,1.533,9.72,1111122 
SCCF RECON,ioos:station:SCCF:56:1,2016-02-08T01:00:00Z,26.4645,-82.1044,1.628,9.25,1111122 
SCCF RECON,ioos:station:SCCF:56:1,2016-02-08T02:00:00Z,26.4645,-82.1044,1.791,8.61,1111122 
SCCF RECON,ioos:station:SCCF:56:1,2016-02-08T03:00:00Z,26.4645,-82.1044,1.993,8.47,1111122 
SCCF RECON,ioos:station:SCCF:56:1,2016-02-08T04:00:00Z,26.4645,-82.1044,2.149,8.24,1111122 
SCCF RECON,ioos:station:SCCF:56:1,2016-02-08T05:00:00Z,26.4645,-82.1044,2.211,8.17,1111122 
SCCF RECON,ioos:station:SCCF:56:1,2016-02-08T06:00:00Z,26.4645,-82.1044,2.17,8.12,1111122 
SCCF RECON,ioos:station:SCCF:56:1,2016-02-08T07:00:00Z,26.4645,-82.1044,2.0,8.02,1111122 
SCCF RECON,ioos:station:SCCF:56:1,2016-02-08T08:00:00Z,26.4645,-82.1044,1.81,7.82,1111122 
SCCF RECON,ioos:station:SCCF:56:1,2016-02-08T09:00:00Z,26.4645,-82.1044,1.67,7.66,1111122 
SCCF RECON,ioos:station:SCCF:56:1,2016-02-08T10:00:00Z,26.4645,-82.1044,1.54,7.6,1111122 
SCCF RECON,ioos:station:SCCF:56:1,2016-02-08T11:00:00Z,26.4645,-82.1044,1.43,7.4,1111122 
SCCF RECON,ioos:station:SCCF:56:1,2016-02-08T12:00:00Z,26.4645,-82.1044,1.34,7.21,1111122 
SCCF RECON,ioos:station:SCCF:56:1,2016-02-08T13:00:00Z,26.4645,-82.1044,1.3,7.12,1111122 
SCCF RECON,ioos:station:SCCF:56:1,2016-02-08T14:00:00Z,26.4645,-82.1044,1.409,7.24,1111122 
SCCF RECON,ioos:station:SCCF:56:1,2016-02-08T15:00:00Z,26.4645,-82.1044,1.609,8.37,1111122 
SCCF RECON,ioos:station:SCCF:56:1,2016-02-08T16:00:00Z,26.4645,-82.1044,1.77,8.98,1111122 
SCCF RECON,ioos:station:SCCF:56:1,2016-02-08T17:00:00Z,26.4645,-82.1044,1.876,9.31,1111122 
SCCF RECON,ioos:station:SCCF:56:1,2016-02-08T18:00:00Z,26.4645,-82.1044,1.94,9.24,1111122 
SCCF RECON,ioos:station:SCCF:56:1,2016-02-08T19:00:00Z,26.4645,-82.1044,1.956,9.75,1111122 
SCCF RECON,ioos:station:SCCF:56:1,2016-02-08T20:00:00Z,26.4645,-82.1044,1.902,9.81,1111122 
SCCF RECON,ioos:station:SCCF:56:1,2016-02-08T21:00:00Z,26.4645,-82.1044,1.799,9.81,1111122 
SCCF RECON,ioos:station:SCCF:56:1,2016-02-08T22:00:00Z,26.4645,-82.1044,1.763,10.06,1111122 
SCCF RECON,ioos:station:SCCF:56:1,2016-02-08T23:00:00Z,26.4645,-82.1044,1.707,9.82,1111122 
SCCF RECON,ioos:station:SCCF:56:1,2016-02-09T00:00:00Z,26.4645,-82.1044,1.642,9.88,1111122 
SCCF RECON,ioos:station:SCCF:56:1,2016-02-09T01:00:00Z,26.4645,-82.1044,1.659,9.79,1111122 
SCCF RECON,ioos:station:SCCF:56:1,2016-02-09T02:00:00Z,26.4645,-82.1044,1.785,10.16,1111122 
SCCF RECON,ioos:station:SCCF:56:1,2016-02-09T03:00:00Z,26.4645,-82.1044,1.965,9.47,1111122 
SCCF RECON,ioos:station:SCCF:56:1,2016-02-09T04:00:00Z,26.4645,-82.1044,2.097,8.65,1111122 
SCCF RECON,ioos:station:SCCF:56:1,2016-02-09T05:00:00Z,26.4645,-82.1044,2.22,8.7,1111122 
SCCF RECON,ioos:station:SCCF:56:1,2016-02-09T06:00:00Z,26.4645,-82.1044,2.316,8.6,1111122 
SCCF RECON,ioos:station:SCCF:56:1,2016-02-09T07:00:00Z,26.4645,-82.1044,2.368,8.59,1111122 
SCCF RECON,ioos:station:SCCF:56:1,2016-02-09T08:00:00Z,26.4645,-82.1044,2.3,8.39,1111122 
SCCF RECON,ioos:station:SCCF:56:1,2016-02-09T09:00:00Z,26.4645,-82.1044,2.124,8.19,1111122 
SCCF RECON,ioos:station:SCCF:56:1,2016-02-09T10:00:00Z,26.4645,-82.1044,1.919,7.95,1111122 
SCCF RECON,ioos:station:SCCF:56:1,2016-02-09T11:00:00Z,26.4645,-82.1044,1.736,7.72,1111122 
SCCF RECON,ioos:station:SCCF:56:1,2016-02-09T12:00:00Z,26.4645,-82.1044,1.59,7.57,1111122 
SCCF RECON,ioos:station:SCCF:56:1,2016-02-09T13:00:00Z,26.4645,-82.1044,1.49,7.42,1111122 
SCCF RECON,ioos:station:SCCF:56:1,2016-02-09T14:00:00Z,26.4645,-82.1044,1.401,7.39,1111122 
SCCF RECON,ioos:station:SCCF:56:1,2016-02-09T15:00:00Z,26.4645,-82.1044,1.45,7.51,1111122 
SCCF RECON,ioos:station:SCCF:56:1,2016-02-09T16:00:00Z,26.4645,-82.1044,1.62,8.94,1111122 
SCCF RECON,ioos:station:SCCF:56:1,2016-02-09T17:00:00Z,26.4645,-82.1044,1.777,9.07,1111122 
SCCF RECON,ioos:station:SCCF:56:1,2016-02-09T18:00:00Z,26.4645,-82.1044,1.89,8.87,1111122 
SCCF RECON,ioos:station:SCCF:56:1,2016-02-09T19:00:00Z,26.4645,-82.1044,1.969,8.89,1111122 
SCCF RECON,ioos:station:SCCF:56:1,2016-02-09T20:00:00Z,26.4645,-82.1044,1.948,9.14,1111122 
SCCF RECON,ioos:station:SCCF:56:1,2016-02-09T21:00:00Z,26.4645,-82.1044,1.838,9.5,1111122 
SCCF RECON,ioos:station:SCCF:56:1,2016-02-09T22:00:00Z,26.4645,-82.1044,1.701,9.64,1111122 
SCCF RECON,ioos:station:SCCF:56:1,2016-02-09T23:00:00Z,26.4645,-82.1044,1.62,9.57,1111122 
SCCF RECON,ioos:station:SCCF:56:1,2016-02-10T00:00:00Z,26.4645,-82.1044,1.602,9.43,1111122 
SCCF RECON,ioos:station:SCCF:56:1,2016-02-10T01:00:00Z,26.4645,-82.1044,1.601,9.35,1111122 
SCCF RECON,ioos:station:SCCF:56:1,2016-02-10T02:00:00Z,26.4645,-82.1044,1.669,9.34,1111122 
SCCF RECON,ioos:station:SCCF:56:1,2016-02-10T03:00:00Z,26.4645,-82.1044,1.778,8.25,1111122 
SCCF RECON,ioos:station:SCCF:56:1,2016-02-10T04:00:00Z,26.4645,-82.1044,1.948,8.42,1111122 
SCCF RECON,ioos:station:SCCF:56:1,2016-02-10T05:00:00Z,26.4645,-82.1044,2.094,8.29,1111122 
SCCF RECON,ioos:station:SCCF:56:1,2016-02-10T06:00:00Z,26.4645,-82.1044,2.186,8.22,1111122 
SCCF RECON,ioos:station:SCCF:56:1,2016-02-10T07:00:00Z,26.4645,-82.1044,2.18,8.06,1111122 
SCCF RECON,ioos:station:SCCF:56:1,2016-02-10T08:00:00Z,26.4645,-82.1044,2.089,7.9,1111122 
SCCF RECON,ioos:station:SCCF:56:1,2016-02-10T09:00:00Z,26.4645,-82.1044,1.949,7.82,1111122 
SCCF RECON,ioos:station:SCCF:56:1,2016-02-10T10:00:00Z,26.4645,-82.1044,1.797,7.59,1111122 
SCCF RECON,ioos:station:SCCF:56:1,2016-02-10T11:00:00Z,26.4645,-82.1044,1.649,7.44,1111122 
SCCF RECON,ioos:station:SCCF:56:1,2016-02-10T12:00:00Z,26.4645,-82.1044,1.514,7.14,1111122 
SCCF RECON,ioos:station:SCCF:56:1,2016-02-10T13:00:00Z,26.4645,-82.1044,1.42,6.93,1111122 
SCCF RECON,ioos:station:SCCF:56:1,2016-02-10T14:00:00Z,26.4645,-82.1044,1.379,6.88,1111122 
SCCF RECON,ioos:station:SCCF:56:1,2016-02-10T15:00:00Z,26.4645,-82.1044,1.36,6.94,1111122 
SCCF RECON,ioos:station:SCCF:56:1,2016-02-10T16:00:00Z,26.4645,-82.1044,1.5,8.24,1111122 
SCCF RECON,ioos:station:SCCF:56:1,2016-02-10T17:00:00Z,26.4645,-82.1044,1.691,9.5,1111122 
SCCF RECON,ioos:station:SCCF:56:1,2016-02-10T18:00:00Z,26.4645,-82.1044,1.811,9.75,1111122 
SCCF RECON,ioos:station:SCCF:56:1,2016-02-10T19:00:00Z,26.4645,-82.1044,1.87,9.72,1111122 
SCCF RECON,ioos:station:SCCF:56:1,2016-02-10T20:00:00Z,26.4645,-82.1044,1.889,9.69,1111122 
SCCF RECON,ioos:station:SCCF:56:1,2016-02-10T21:00:00Z,26.4645,-82.1044,1.826,9.8,1111122 
SCCF RECON,ioos:station:SCCF:56:1,2016-02-10T22:00:00Z,26.4645,-82.1044,1.69,9.96,1111122 
SCCF RECON,ioos:station:SCCF:56:1,2016-02-10T23:00:00Z,26.4645,-82.1044,1.603,9.75,1111122 
SCCF RECON,ioos:station:SCCF:56:1,2016-02-11T00:00:00Z,26.4645,-82.1044,1.54,9.46,1111122 
SCCF RECON,ioos:station:SCCF:56:1,2016-02-11T01:00:00Z,26.4645,-82.1044,1.448,9.16,1111122 
SCCF RECON,ioos:station:SCCF:56:1,2016-02-11T02:00:00Z,26.4645,-82.1044,1.365,8.98,1111122 
SCCF RECON,ioos:station:SCCF:56:1,2016-02-11T03:00:00Z,26.4645,-82.1044,1.356,8.66,1111122 
SCCF RECON,ioos:station:SCCF:56:1,2016-02-11T04:00:00Z,26.4645,-82.1044,1.49,8.65,1111122 
SCCF RECON,ioos:station:SCCF:56:1,2016-02-11T05:00:00Z,26.4645,-82.1044,1.687,8.39,1111122 
SCCF RECON,ioos:station:SCCF:56:1,2016-02-11T06:00:00Z,26.4645,-82.1044,1.84,8.72,1111122 
SCCF RECON,ioos:station:SCCF:56:1,2016-02-11T07:00:00Z,26.4645,-82.1044,1.954,8.59,1111122 
SCCF RECON,ioos:station:SCCF:56:1,2016-02-11T08:00:00Z,26.4645,-82.1044,1.98,8.47,1111122 
SCCF RECON,ioos:station:SCCF:56:1,2016-02-11T09:00:00Z,26.4645,-82.1044,1.909,8.35,1111122 
SCCF RECON,ioos:station:SCCF:56:1,2016-02-11T10:00:00Z,26.4645,-82.1044,1.759,8.18,1111122 
SCCF RECON,ioos:station:SCCF:56:1,2016-02-11T11:00:00Z,26.4645,-82.1044,1.618,7.9,1111122 
SCCF RECON,ioos:station:SCCF:56:1,2016-02-11T12:00:00Z,26.4645,-82.1044,1.525,7.55,1111122 
SCCF RECON,ioos:station:SCCF:56:1,2016-02-11T13:00:00Z,26.4645,-82.1044,1.429,7.33,1111122 
SCCF RECON,ioos:station:SCCF:56:1,2016-02-11T14:00:00Z,26.4645,-82.1044,1.342,7.1,1111122 
SCCF RECON,ioos:station:SCCF:56:1,2016-02-11T15:00:00Z,26.4645,-82.1044,1.319,7.12,1111122 
SCCF RECON,ioos:station:SCCF:56:1,2016-02-11T16:00:00Z,26.4645,-82.1044,1.427,7.53,1111122 
SCCF RECON,ioos:station:SCCF:56:1,2016-02-11T17:00:00Z,26.4645,-82.1044,1.618,11.68,1111122 
SCCF RECON,ioos:station:SCCF:56:1,2016-02-11T18:00:00Z,26.4645,-82.1044,1.779,11.06,1111122 
SCCF RECON,ioos:station:SCCF:56:1,2016-02-11T19:00:00Z,26.4645,-82.1044,1.86,10.71,1111122 
SCCF RECON,ioos:station:SCCF:56:1,2016-02-11T20:00:00Z,26.4645,-82.1044,1.952,10.69,1111122 